Chattanooga, TN

11:48 AM EDT on October 19, 2017 (GMT -0400)
Lovell

Weather History for KCHA - August, 2012

Change the Weather History Date:

Friday, August 24, 2012

  Actual Average Record
Temperature  
Mean Temperature 77 °F 79 °F  
Max Temperature 90 °F 89 °F 102 °F (2007)
Min Temperature 64 °F 69 °F 54 °F (1891)
Degree Days  
Heating Degree Days 0 0  
Month to date heating degree days 0 0  
Since 1 June heating degree days 0 2  
Since 1 July heating degree days 0 0  
Cooling Degree Days 12 14  
Month to date cooling degree days 315 354  
Year to date cooling degree days 1680 1358  
Since 1 June cooling degree days 1255 1162  
Growing Degree Days 27 (Base 50)    
Moisture  
Dew Point 63 °F    
Average Humidity 66    
Maximum Humidity 93    
Minimum Humidity 38    
Precipitation  
Precipitation 0.00 in 0.10 in 1.46 in (1896)
Month to date precipitation 3.79 2.76  
Year to date precipitation 31.03 34.54  
Snow  
Snow 0.00 in 0.00 in - ()
Month to date snowfall 0.0 0.0  
Since 1 June snowfall 0.0 0.0  
Since 1 July snowfall 0.0 0.0  
Snow Depth 0.00 in    
Sea Level Pressure  
Sea Level Pressure 30.09 in    
Wind  
Wind Speed 2 mph (SE)    
Max Wind Speed 10 mph    
Max Gust Speed 13 mph    
Visibility 10 miles    
Events      
T = Trace of Precipitation, MM = Missing Value Source: NWS Daily Summary

Daily Weather History Graph

Daily Weather History Graph

Search for Another Location

Airport or City:

Trip Planner

Search our weather history database for the weather conditions in past years. The results will help you decide how hot, cold, wet, or windy it might be!

Date:

Astronomy

Aug. 24, 2012 Rise Set
Actual Time 7:07 AM EDT 8:17 PM EDT
Civil Twilight 6:41 AM EDT 8:43 PM EDT
Nautical Twilight 6:10 AM EDT 9:14 PM EDT
Astronomical Twilight 5:37 AM EDT 9:47 PM EDT
Moon 2:40 PM EDT (8/24) 12:05 AM EDT (8/24)
Length of Visible Light 14h 02m
Length of Day
13h 09m
Waxing Crescent, 51% of the Moon is Illuminated
Aug 24
Waxing Crescent
Aug 31
Full
Sep 8
Last Quarter
Sep 15
New
Sep 22
First Quarter

Hourly Weather History & Observations

Time (EDT) Temp. Heat Index Dew Point Humidity Pressure Visibility Wind Dir Wind Speed Gust Speed Precip Events Conditions
12:53 AM 69.1 °F - 64.9 °F 87% 30.09 in 10.0 mi Calm Calm - N/A   Clear
1:53 AM 69.1 °F - 64.0 °F 84% 30.09 in 10.0 mi SE 3.5 mph - N/A   Clear
2:53 AM 68.0 °F - 64.0 °F 87% 30.09 in 10.0 mi Calm Calm - N/A   Clear
3:53 AM 68.0 °F - 63.0 °F 84% 30.09 in 10.0 mi Calm Calm - N/A   Clear
4:53 AM 66.0 °F - 63.0 °F 90% 30.09 in 9.0 mi Calm Calm - N/A   Clear
5:53 AM 64.9 °F - 62.1 °F 90% 30.10 in 8.0 mi Calm Calm - N/A   Clear
6:53 AM 64.0 °F - 62.1 °F 93% 30.12 in 10.0 mi Calm Calm - N/A   Clear
7:53 AM 64.9 °F - 62.1 °F 90% 30.13 in 10.0 mi Calm Calm - N/A   Clear
8:53 AM 69.1 °F - 64.0 °F 84% 30.15 in 10.0 mi Calm Calm - N/A   Partly Cloudy
9:53 AM 73.9 °F - 64.9 °F 73% 30.15 in 10.0 mi Calm Calm - N/A   Clear
10:53 AM 79.0 °F - 64.9 °F 62% 30.15 in 10.0 mi East 4.6 mph - N/A   Partly Cloudy
11:53 AM 82.0 °F 84.1 °F 66.0 °F 58% 30.14 in 10.0 mi Calm Calm - N/A   Partly Cloudy
12:53 PM 84.9 °F 86.6 °F 64.9 °F 51% 30.12 in 10.0 mi Calm Calm - N/A   Partly Cloudy
1:53 PM 87.1 °F 87.8 °F 63.0 °F 44% 30.09 in 10.0 mi Variable 3.5 mph - N/A   Scattered Clouds
2:53 PM 88.0 °F 87.6 °F 60.1 °F 39% 30.07 in 10.0 mi NE 8.1 mph - N/A   Scattered Clouds
3:53 PM 89.1 °F 89.0 °F 61.0 °F 39% 30.05 in 10.0 mi Calm Calm - N/A   Scattered Clouds
4:53 PM 88.0 °F 87.6 °F 60.1 °F 39% 30.04 in 10.0 mi South 5.8 mph - N/A   Scattered Clouds
5:53 PM 88.0 °F 87.6 °F 60.1 °F 39% 30.03 in 10.0 mi ESE 4.6 mph - N/A   Scattered Clouds
6:53 PM 87.1 °F 86.5 °F 59.0 °F 39% 30.03 in 10.0 mi SSE 3.5 mph - N/A   Scattered Clouds
7:53 PM 84.9 °F 85.0 °F 61.0 °F 44% 30.04 in 10.0 mi ESE 8.1 mph - N/A   Scattered Clouds
8:53 PM 82.0 °F 84.1 °F 66.0 °F 58% 30.05 in 10.0 mi SE 4.6 mph - N/A   Scattered Clouds
9:53 PM 81.0 °F 83.0 °F 66.0 °F 60% 30.07 in 10.0 mi South 4.6 mph - N/A   Mostly Cloudy
10:53 PM 77.0 °F - 68.0 °F 74% 30.09 in 10.0 mi Calm Calm - N/A   Mostly Cloudy
11:53 PM 75.9 °F - 66.9 °F 74% 30.09 in 10.0 mi Calm Calm - N/A   Scattered Clouds